Regional Weather Roundup
Issued by NWS

Home | Current Version | Previous Version | Text Only | Print | Product List | Glossary Off
Versions: 1 2 3 4 5 6 7 8 9 10 11 12 13 14 15 16 17 18 19 20 21 22 23 24 25 26 27 28 29 30 31 32 33 34 35 36 37 38 39 40 41 42 43 44 45 46 47 48 49 50

000
ASUS43 KLMK 040810
RWRKY
KENTUCKY REGIONAL WEATHER ROUNDUP
NATIONAL WEATHER SERVICE LOUISVILLE KY
400 AM EDT TUE AUG 04 2015

NOTE "FAIR" INDICATES FEW OR NO CLOUDS BELOW 12,000 FEET
WITH NO SIGNIFICANT WEATHER AND/OR OBSTRUCTIONS TO VISIBILITY.

KYZ001>023-026-027-061>063-070>075-040900-
WESTERN AND SOUTH CENTRAL KENTUCKY

CITY           SKY/WX    TMP DP  RH WIND       PRES   REMARKS
PADUCAH        CLEAR     73  70  90 CALM      29.92S
HENDERSON      PTCLDY    72  66  83 CALM      29.92S
OWENSBORO      CLEAR     75  72  91 CALM      29.94R
HOPKINSVILLE   CLEAR     75  70  84 W1        29.94S
BOWLING GREEN  MOCLDY    77  70  79 CALM      29.95S
GLASGOW        PTCLDY   N/A N/A N/A CALM      29.95S
$$

KYZ024-025-028>034-038-045-046-053-040900-
NORTH CENTRAL KENTUCKY

CITY           SKY/WX    TMP DP  RH WIND       PRES   REMARKS
LOUISVILLE/SDF MOCLDY    78  67  68 N6        29.92S
LOUISVILLE/LOU CLEAR     77  68  73 CALM      29.93S
FORT KNOX      PTCLDY    69  67  93 NW1       29.93S
$$

KYZ035>037-039>044-047>052-055>060-089>105-040900-
NORTHEAST KENTUCKY

CITY           SKY/WX    TMP DP  RH WIND       PRES   REMARKS
LEXINGTON      CLEAR     69  65  86 S3        29.95S
COVINGTON      PTCLDY    69  66  90 NE5       29.94S
FRANKFORT      PTCLDY    70  66  87 CALM      29.93S
$$

KYZ054-064>069-076>088-106>120-040900-
SOUTHEAST KENTUCKY

CITY           SKY/WX    TMP DP  RH WIND       PRES   REMARKS
JACKSON        PTCLDY    66  64  93 S5        29.98S
LONDON         PTCLDY    69  63  81 S3        29.99S
SOMERSET       CLEAR     70  70 100 CALM      29.98S
MIDDLESBORO    MOCLDY    67  67  98 NE5       30.02R
MONTICELLO     SUNNY     69  69 100 CALM      30.00R
$$




USA.gov is the U.S. government's official web portal to all federal, state and local government web resources and services.